Regional Weather Roundup
Issued by NWS

Home | Current Version | Previous Version | Text Only | Print | Product List | Glossary On
Versions: 1 2 3 4 5 6 7 8 9 10 11 12 13 14 15 16 17 18 19 20 21 22 23 24 25 26 27 28 29 30 31 32 33 34 35 36 37 38 39 40 41 42 43 44 45 46 47 48 49 50
000
ASUS43 KTOP 260708
RWRKS

WEATHER ROUNDUP FOR KANSAS
NATIONAL WEATHER SERVICE GOODLAND KS
200 AM CDT SUN APR 26 2015

NOTE:  "FAIR" INDICATES FEW OR NO CLOUDS BELOW 12,000 FEET WITH NO
SIGNIFICANT WEATHER AND/OR OBSTRUCTIONS TO VISIBILITY.

KSZ001>006-013>018-027>032-041>047-260800-
NORTHWEST KANSAS

CITY           SKY/WX    TMP DP  RH WIND       PRES   REMARKS
GOODLAND       FOG       47  47 100 E18G28    29.82R VSB 1/4
HAYS           CLOUDY    48  43  81 E14       29.82S
HILL CITY      CLOUDY    49  46  90 E15       29.85S
RUSSELL        CLOUDY    49  49 100 NE15      29.80F FOG
$$

KSZ061>065-074>080-084>089-260800-
SOUTHWEST KANSAS

CITY           SKY/WX    TMP DP  RH WIND       PRES   REMARKS
DODGE CITY     CLOUDY    52  50  93 E20       29.77F FOG
ELKHART          N/A     54  45  72 E15         N/A
GARDEN CITY    CLOUDY    51  50  96 E18       29.76R
GREAT BEND     CLOUDY    52  46  82 E12       29.82R
LIBERAL        CLEAR     55  46  71 E17G23    29.73S
$$

KSZ066>073-081>083-090>101-260800-
SOUTHEAST KANSAS

CITY           SKY/WX    TMP DP  RH WIND       PRES   REMARKS
CHANUTE        CLOUDY    52  50  93 NE12      29.78S
COFFEYVILLE    CLOUDY    57  51  80 NE14      29.77R
HUTCHINSON     CLOUDY    53  48  83 NE12      29.81R
MEDICINE LODGE   N/A     54  51  90 NE13G26   29.75R
NEWTON         CLOUDY    48  45  87 NE8G16    29.82R
PARSONS        CLOUDY    55  51  86 VRB3      29.79R
WICHITA INTL   CLOUDY    54  49  83 NE16      29.78F
WICHITA JABRA  CLOUDY    51  48  89 NE13      29.79R
WICHITA MCCONL CLOUDY    54  50  87 NE17      29.78F
WINFIELD       CLOUDY    55  50  83 NE14G25   29.77R
$$

KSZ007>012-019>026-033>040-048>060-102>105-260800-
NORTHEAST KANSAS

CITY           SKY/WX    TMP DP  RH WIND       PRES   REMARKS
CONCORDIA      CLOUDY    48  45  89 NE10      29.86R FOG
EMPORIA        CLOUDY    49  46  90 NE12      29.81S
LAWRENCE       CLOUDY    50  47  89 NE5       29.85R
MANHATTAN      CLOUDY    49  47  93 NE10      29.85S FOG
MARYSVILLE     CLOUDY    48  45  87 E8        29.87S
OLATHE IND     CLOUDY    49  48  97 N7        29.84R FOG
OLATHE EXE     CLOUDY    50  49  96 NE9       29.83R FOG
SALINA         CLOUDY    51  45  79 NE12      29.83S
TOPEKA BILLARD CLOUDY    50  46  86 N7        29.85S
TOPEKA FORBES  CLOUDY    51  46  83 NE7       29.83S
$$


USA.gov is the U.S. government's official web portal to all federal, state and local government web resources and services.